When you browse on this site, cookies collect data to enhance your experience and personalize the content and advertising you see.
Visit our Privacy Policy to learn more. By continuing to use the site, you agree to this use of cookies and data.
  • In Belgien
  • Länderverzeichnis
  • Für 7 Tage
  • Wassertemperatur
  • Satellitenkarten
  • Wetterkarte
  • Widgets
  • user-avatar
    Anmelden

    Stündliche Wetter Albena

    Heute, 21 Januar, Montag

    Zeit Temperatur Niederschläge Wind Luftdruck Luftfeuchtigkeit
    00:00 +5°C° 0 mm 3 m/S 745 mmHg 94%
    01:00 +5°C° 0 mm 3 m/S 745 mmHg 95%
    02:00 +4°C° 0 mm 3 m/S 745 mmHg 95%
    03:00 +3°C° 0 mm 4 m/S 745 mmHg 93%
    04:00 +2°C° 0 mm 5 m/S 745 mmHg 91%
    05:00 +1°C° 0 mm 6 m/S 746 mmHg 90%
    06:00 +1°C° 0 mm 6 m/S 746 mmHg 89%
    07:00 -1°C° 0 mm 6 m/S 746 mmHg 88%
    08:00 0°C° 0 mm 5 m/S 747 mmHg 87%
    09:00 +1°C° 0 mm 6 m/S 747 mmHg 83%
    10:00 +1°C° 0 mm 6 m/S 748 mmHg 79%
    11:00 +2°C° 0 mm 6 m/S 748 mmHg 76%
    12:00 +2°C° 0 mm 6 m/S 748 mmHg 74%
    13:00 +2°C° 0 mm 5 m/S 748 mmHg 73%
    14:00 +3°C° 0 mm 5 m/S 749 mmHg 72%
    15:00 +3°C° 0 mm 4 m/S 749 mmHg 74%
    16:00 +1°C° 0 mm 4 m/S 749 mmHg 75%
    17:00 +1°C° 0 mm 4 m/S 749 mmHg 77%
    18:00 0°C° 0 mm 4 m/S 750 mmHg 80%
    19:00 -1°C° 0 mm 4 m/S 750 mmHg 82%
    20:00 -1°C° 0 mm 3 m/S 750 mmHg 84%
    21:00 -1°C° 0 mm 3 m/S 750 mmHg 84%
    22:00 -1°C° 0 mm 3 m/S 751 mmHg 85%
    23:00 -1°C° 0 mm 3 m/S 751 mmHg 85%

    Morgen, 22 Januar, Dienstag

    Zeit Temperatur Niederschläge Wind Luftdruck Luftfeuchtigkeit
    00:00 -1°C° 0 mm 2 m/S 751 mmHg 86%
    01:00 -1°C° 0 mm 2 m/S 751 mmHg 86%
    02:00 -1°C° 0 mm 2 m/S 751 mmHg 87%
    03:00 -1°C° 0 mm 2 m/S 750 mmHg 88%
    04:00 -1°C° 0 mm 2 m/S 750 mmHg 89%
    05:00 -1°C° 0 mm 2 m/S 750 mmHg 90%
    06:00 -1°C° 0 mm 2 m/S 750 mmHg 89%
    07:00 +1°C° 0 mm 2 m/S 750 mmHg 89%
    08:00 0°C° 0 mm 3 m/S 750 mmHg 89%
    09:00 +1°C° 0 mm 3 m/S 750 mmHg 86%
    10:00 +1°C° 0 mm 3 m/S 750 mmHg 83%
    11:00 +1°C° 0 mm 4 m/S 749 mmHg 80%
    12:00 +1°C° 0 mm 4 m/S 749 mmHg 80%
    13:00 +3°C° 0 mm 4 m/S 748 mmHg 80%
    14:00 +2°C° 0 mm 5 m/S 747 mmHg 80%
    15:00 +2°C° 0 mm 5 m/S 747 mmHg 83%
    16:00 +3°C° 0 mm 4 m/S 747 mmHg 85%
    17:00 +3°C° 0 mm 4 m/S 746 mmHg 87%
    18:00 +2°C° 0 mm 5 m/S 746 mmHg 88%
    19:00 +2°C° 0 mm 5 m/S 745 mmHg 90%
    20:00 +2°C° 0 mm 5 m/S 745 mmHg 91%
    21:00 +2°C° 0.1 mm 5 m/S 745 mmHg 91%
    22:00 +3°C° 0.1 mm 6 m/S 744 mmHg 92%
    23:00 +3°C° 0.1 mm 6 m/S 744 mmHg 93%

    übermorgen, 23 Januar, Mittwoch

    Zeit Temperatur Niederschläge Wind Luftdruck Luftfeuchtigkeit
    00:00 +3°C° 0 mm 6 m/S 743 mmHg 93%
    01:00 +3°C° 0 mm 6 m/S 742 mmHg 93%
    02:00 +4°C° 0 mm 6 m/S 742 mmHg 93%
    03:00 +4°C° 1.2 mm 7 m/S 741 mmHg 95%
    04:00 +4°C° 1.2 mm 7 m/S 740 mmHg 96%
    05:00 +4°C° 1.2 mm 7 m/S 739 mmHg 97%
    06:00 +5°C° 1.6 mm 7 m/S 739 mmHg 95%
    07:00 +5°C° 1.6 mm 7 m/S 738 mmHg 92%
    08:00 +6°C° 1.6 mm 7 m/S 738 mmHg 90%
    09:00 +7°C° 0 mm 8 m/S 738 mmHg 86%
    10:00 +9°C° 0 mm 8 m/S 738 mmHg 82%
    11:00 +10°C° 0 mm 9 m/S 738 mmHg 78%
    12:00 +10°C° 0 mm 9 m/S 738 mmHg 74%
    13:00 +11°C° 0 mm 8 m/S 737 mmHg 70%
    14:00 +12°C° 0 mm 8 m/S 737 mmHg 66%
    15:00 +11°C° 0.1 mm 7 m/S 737 mmHg 69%
    16:00 +10°C° 0.1 mm 6 m/S 738 mmHg 72%
    17:00 +9°C° 0.1 mm 5 m/S 738 mmHg 75%
    18:00 +9°C° 0 mm 5 m/S 738 mmHg 78%
    19:00 +8°C° 0 mm 5 m/S 738 mmHg 81%
    20:00 +7°C° 0 mm 5 m/S 739 mmHg 84%
    21:00 +7°C° 0 mm 4 m/S 739 mmHg 86%
    22:00 +7°C° 0 mm 4 m/S 739 mmHg 88%
    23:00 +7°C° 0 mm 3 m/S 739 mmHg 90%

    24 Januar, Donnerstag

    Zeit Temperatur Niederschläge Wind Luftdruck Luftfeuchtigkeit
    00:00 +7°C° 0 mm 3 m/S 739 mmHg 91%
    01:00 +8°C° 0 mm 3 m/S 739 mmHg 92%
    02:00 +8°C° 0 mm 3 m/S 739 mmHg 93%
    03:00 +7°C° 0.1 mm 2 m/S 739 mmHg 94%
    04:00 +7°C° 0.1 mm 2 m/S 739 mmHg 95%
    05:00 +7°C° 0.1 mm 2 m/S 739 mmHg 96%
    06:00 +7°C° 0.1 mm 2 m/S 739 mmHg 97%
    07:00 +7°C° 0.1 mm 3 m/S 739 mmHg 97%
    08:00 +8°C° 0.1 mm 3 m/S 739 mmHg 97%
    09:00 +8°C° 0 mm 3 m/S 739 mmHg 94%
    10:00 +8°C° 0 mm 4 m/S 739 mmHg 91%
    11:00 +8°C° 0 mm 4 m/S 739 mmHg 87%
    12:00 +9°C° 0 mm 5 m/S 739 mmHg 86%
    13:00 +9°C° 0 mm 6 m/S 738 mmHg 84%
    14:00 +9°C° 0 mm 7 m/S 738 mmHg 82%
    15:00 +8°C° 0 mm 7 m/S 738 mmHg 85%
    16:00 +8°C° 0 mm 7 m/S 738 mmHg 88%
    17:00 +6°C° 0 mm 8 m/S 738 mmHg 91%
    18:00 +6°C° 0 mm 8 m/S 738 mmHg 91%
    19:00 +6°C° 0 mm 9 m/S 739 mmHg 90%
    20:00 +5°C° 0 mm 10 m/S 739 mmHg 90%
    21:00 +5°C° 0 mm 10 m/S 739 mmHg 90%
    22:00 +5°C° 0 mm 10 m/S 739 mmHg 91%
    23:00 +5°C° 0 mm 9 m/S 739 mmHg 91%

    25 Januar, Freitag

    Zeit Temperatur Niederschläge Wind Luftdruck Luftfeuchtigkeit
    00:00 +5°C° 0.1 mm 9 m/S 739 mmHg 91%
    01:00 +5°C° 0.1 mm 9 m/S 739 mmHg 90%
    02:00 +3°C° 0.1 mm 9 m/S 739 mmHg 90%
    03:00 +4°C° 0.2 mm 8 m/S 739 mmHg 91%
    04:00 +4°C° 0.2 mm 8 m/S 739 mmHg 91%
    05:00 +4°C° 0.2 mm 8 m/S 739 mmHg 92%
    06:00 +4°C° 0.8 mm 8 m/S 740 mmHg 92%
    07:00 +4°C° 0.8 mm 8 m/S 740 mmHg 93%
    08:00 +4°C° 0.8 mm 8 m/S 741 mmHg 93%
    09:00 +4°C° 0.1 mm 8 m/S 741 mmHg 93%
    10:00 +4°C° 0.1 mm 7 m/S 741 mmHg 93%
    11:00 +4°C° 0.1 mm 7 m/S 741 mmHg 93%
    12:00 +4°C° 0.1 mm 7 m/S 741 mmHg 93%
    13:00 +4°C° 0.1 mm 7 m/S 741 mmHg 93%
    14:00 +4°C° 0.1 mm 7 m/S 741 mmHg 93%
    15:00 +4°C° 0.3 mm 7 m/S 740 mmHg 94%
    16:00 +4°C° 0.3 mm 7 m/S 740 mmHg 94%
    17:00 +4°C° 0.3 mm 7 m/S 740 mmHg 95%
    18:00 +4°C° 0.7 mm 7 m/S 740 mmHg 95%
    19:00 +4°C° 0.7 mm 7 m/S 740 mmHg 96%
    20:00 +4°C° 0.7 mm 7 m/S 740 mmHg 96%
    21:00 +4°C° 1.9 mm 7 m/S 740 mmHg 96%
    22:00 +4°C° 1.9 mm 6 m/S 740 mmHg 97%
    23:00 +5°C° 1.9 mm 5 m/S 740 mmHg 97%

    26 Januar, Samstag

    Zeit Temperatur Niederschläge Wind Luftdruck Luftfeuchtigkeit
    00:00 +5°C° 0.5 mm 4 m/S 740 mmHg 97%
    01:00 +5°C° 0.5 mm 4 m/S 739 mmHg 97%
    02:00 +5°C° 0.5 mm 3 m/S 739 mmHg 97%
    03:00 +5°C° 0.1 mm 4 m/S 739 mmHg 95%
    04:00 +5°C° 0.1 mm 5 m/S 739 mmHg 94%
    05:00 +3°C° 0.1 mm 5 m/S 739 mmHg 92%
    06:00 +3°C° 0 mm 5 m/S 739 mmHg 91%
    07:00 +2°C° 0 mm 6 m/S 739 mmHg 90%
    08:00 +2°C° 0 mm 6 m/S 739 mmHg 89%
    09:00 +2°C° 0 mm 6 m/S 740 mmHg 87%
    10:00 +2°C° 0 mm 6 m/S 740 mmHg 85%
    11:00 +2°C° 0 mm 6 m/S 740 mmHg 83%
    12:00 +3°C° 0 mm 6 m/S 740 mmHg 81%
    13:00 +3°C° 0 mm 6 m/S 740 mmHg 79%
    14:00 +3°C° 0 mm 6 m/S 740 mmHg 77%
    15:00 +2°C° 0 mm 6 m/S 740 mmHg 79%
    16:00 +1°C° 0 mm 5 m/S 741 mmHg 81%
    17:00 +1°C° 0 mm 5 m/S 741 mmHg 84%
    18:00 0°C° 0 mm 5 m/S 741 mmHg 84%
    19:00 -1°C° 0 mm 6 m/S 741 mmHg 84%
    20:00 -1°C° 0 mm 6 m/S 741 mmHg 85%
    21:00 -1°C° 0 mm 6 m/S 741 mmHg 85%
    22:00 -2°C° 0 mm 6 m/S 741 mmHg 84%
    23:00 -2°C° 0 mm 6 m/S 741 mmHg 84%
    Mehr zeigen